Fairborn, OH

5:43 PM EDT on August 24, 2016 (GMT -0400)
Wright-Patterson Air Force Base

Weather History for KFFO - January, 2014

Change the Weather History Date:

Saturday, January 4, 2014

  Actual Average Record
Temperature  
Mean Temperature 22 °F -  
Max Temperature 35 °F 36 °F 64 °F (1997)
Min Temperature 9 °F 22 °F 0 °F (1999)
Degree Days  
Heating Degree Days 43    
Moisture  
Dew Point 12 °F    
Average Humidity 60    
Maximum Humidity 72    
Minimum Humidity 47    
Precipitation  
Precipitation 0.00 in - - ()
Snow  
Snow 0.00 in - - ()
Snow Depth 4.00 in    
Sea Level Pressure  
Sea Level Pressure 30.15 in    
Wind  
Wind Speed 10 mph (South)    
Max Wind Speed 22 mph    
Max Gust Speed 31 mph    
Visibility 10 miles    
Events      
Averages and records for this station are not official NWS values.
T = Trace of Precipitation, MM = Missing Value Source: NWS Daily Summary

Daily Weather History Graph

Daily Weather History Graph

Search for Another Location

Airport or City:

Trip Planner

Search our weather history database for the weather conditions in past years. The results will help you decide how hot, cold, wet, or windy it might be!

Date:

Astronomy

Jan. 04, 2014 Rise Set
Actual Time 7:57 AM EST 5:24 PM EST
Civil Twilight 7:27 AM EST 5:55 PM EST
Nautical Twilight 6:53 AM EST 6:28 PM EST
Astronomical Twilight 6:21 AM EST 7:01 PM EST
Moon 10:03 AM EST (1/4) 9:43 PM EST (1/4)
Length of Visible Light 10h 27m
Length of Day
9h 27m
Waxing Crescent, 15% of the Moon is Illuminated
Jan 4
Waxing Crescent
Jan 7
First Quarter
Jan 15
Full
Jan 24
Last Quarter
Jan 30
New

Hourly Weather History & Observations

Time (EST) Temp. Windchill Dew Point Humidity Pressure Visibility Wind Dir Wind Speed Gust Speed Precip Events Conditions
12:58 AM 10.0 °F 0.4 °F 1.9 °F 70% 30.26 in 10.0 mi SSE 5.8 mph - N/A   Clear
1:58 AM 9.5 °F -0.3 °F 1.9 °F 71% 30.26 in 10.0 mi SE 5.8 mph - N/A   Clear
2:58 AM 11.5 °F 3.5 °F 2.7 °F 68% 30.26 in 10.0 mi SSE 4.6 mph - N/A   Clear
3:58 AM 11.8 °F 2.5 °F 3.6 °F 69% 30.25 in 10.0 mi South 5.8 mph - N/A   Clear
4:58 AM 12.6 °F -1.4 °F 4.5 °F 70% 30.23 in 10.0 mi South 11.5 mph - N/A   Clear
5:58 AM 14.9 °F 2.3 °F 5.5 °F 66% 30.21 in 10.0 mi South 10.4 mph - N/A   Clear
6:58 AM 16.2 °F 2.5 °F 6.4 °F 66% 30.20 in 10.0 mi SSE 12.7 mph - N/A   Clear
7:58 AM 16.5 °F 3.0 °F 6.8 °F 66% 30.20 in 10.0 mi South 12.7 mph - N/A   Clear
8:58 AM 22.1 °F 7.2 °F 8.8 °F 57% 30.19 in 10.0 mi South 19.6 mph 28.8 mph N/A   Clear
9:58 AM 24.6 °F 9.7 °F 11.3 °F 57% 30.17 in 10.0 mi SSW 21.9 mph 31.1 mph N/A   Clear
10:58 AM 27.1 °F 13.4 °F 12.6 °F 54% 30.16 in 10.0 mi South 20.7 mph 27.6 mph N/A   Clear
11:58 AM 28.2 °F 15.5 °F 13.5 °F 54% 30.13 in 10.0 mi South 18.4 mph - N/A   Clear
12:58 PM 29.8 °F 19.3 °F 15.6 °F 56% 30.11 in 10.0 mi SSW 13.8 mph - N/A   Clear
1:58 PM 32.7 °F 21.1 °F 16.5 °F 51% 30.09 in 10.0 mi South 19.6 mph - N/A   Clear
2:58 PM 33.8 °F 23.5 °F 16.3 °F 49% 30.09 in 10.0 mi South 16.1 mph - N/A   Clear
3:58 PM 35.8 °F 26.9 °F 17.6 °F 48% 30.09 in 10.0 mi South 13.8 mph - N/A   Partly Cloudy
4:58 PM 35.4 °F 27.8 °F 17.1 °F 47% 30.09 in 10.0 mi South 10.4 mph - N/A   Clear
5:58 PM 31.6 °F 24.4 °F 16.7 °F 54% 30.07 in 10.0 mi South 8.1 mph - N/A   Clear
6:58 PM 29.8 °F 24.9 °F 16.3 °F 57% 30.08 in 10.0 mi SSE 4.6 mph - N/A   Partly Cloudy
7:58 PM 28.9 °F 25.2 °F 15.6 °F 58% 30.09 in 10.0 mi SE 3.5 mph - N/A   Clear
8:58 PM 30.0 °F 24.1 °F 16.5 °F 57% 30.09 in 10.0 mi SE 5.8 mph - N/A   Overcast
9:58 PM 31.8 °F 28.5 °F 21.0 °F 64% 30.09 in 10.0 mi SE 3.5 mph - N/A   Overcast
10:58 PM 31.5 °F - 20.8 °F 65% 30.09 in 10.0 mi East 2.3 mph - N/A   Overcast
11:58 PM 31.1 °F - 23.0 °F 72% 30.10 in 10.0 mi Calm Calm - N/A   Overcast